GW5310 Weather Reports


time (UTC)temp
C
wind
direction
speed
KPH
gust
KPH
rain 1hr
cm
rain 24hr
cm
rain mn
cm
humidity
%
barometer
mb
20260504004527 5 22 3.2 6.4 0.00 0.00 0.00 70 1017.3
20260504004024 4 354 4.8 6.4 0.00 0.00 0.00 70 1017.2
20260504003520 4 346 1.6 6.4 0.00 0.00 0.00 69 1017.5
20260504003017 4 124 0.0 3.2 0.00 0.00 0.00 71 1017.2
20260504002514 5 66 1.6 4.8 0.00 0.00 0.00 67 1017.2
20260504002012 5 24 3.2 6.4 0.00 0.00 0.00 67 1017.2
20260504001509 5 55 0.0 3.2 0.00 0.00 0.00 67 1017.2
20260504001005 6 146 3.2 6.4 0.00 0.00 0.00 62 1017.2
20260504000502 6 315 0.0 4.8 0.00 0.00 0.00 66 1017.2
20260503235959 6 47 3.2 4.8 0.00 0.00 0.00 57 1017.0
20260503235458 6 303 0.0 4.8 0.00 0.00 0.00 65 1017.0
20260503234954 6 101 0.0 8.0 0.00 0.00 0.00 58 1017.1
20260503234452 7 137 1.6 4.8 0.00 0.00 0.00 57 1017.2
20260503233950 8 165 1.6 4.8 0.00 0.00 0.00 52 1017.2
20260503233446 8 121 0.0 8.0 0.00 0.00 0.00 39 1017.5
20260503232942 8 101 3.2 12.9 0.00 0.00 0.00 41 1017.1
20260503232439 9 139 1.6 14.5 0.00 0.00 0.00 39 1017.1
20260503231937 9 184 0.0 14.5 0.00 0.00 0.00 40 1017.2
20260503231435 9 180 1.6 4.8 0.00 0.00 0.00 38 1017.1
20260503230931 9 204 6.4 12.9 0.00 0.00 0.00 35 1017.2
20260503230427 9 95 3.2 6.4 0.00 0.00 0.00 36 1017.0
20260503225925 9 167 1.6 11.3 0.00 0.00 0.00 42 1017.1
20260503225422 10 73 1.6 4.8 0.00 0.00 0.00 40 1017.0
20260503224917 11 182 1.6 4.8 0.00 0.00 0.00 32 1017.5
20260503224415 11 147 0.0 17.7 0.00 0.00 0.00 35 1017.1
20260503223912 12 174 3.2 9.7 0.00 0.00 0.00 33 1017.5
20260503223410 12 225 3.2 8.0 0.00 0.00 0.00 32 1016.9
20260503222910 13 124 4.8 6.4 0.00 0.00 0.00 31 1017.0
20260503222409 12 318 6.4 20.9 0.00 0.00 0.00 35 1017.1
20260503221907 12 110 0.0 3.2 0.00 0.00 0.00 34 1017.2
20260503221405 13 207 6.4 9.7 0.00 0.00 0.00 32 1017.2
20260503220901 13 70 1.6 9.7 0.00 0.00 0.00 30 1016.9
20260503220358 12 162 1.6 9.7 0.00 0.00 0.00 34 1016.8
20260503215855 11 194 11.3 20.9 0.00 0.00 0.00 34 1016.8
20260503215352 12 197 9.7 12.9 0.00 0.00 0.00 34 1016.7
20260503214849 12 210 8.0 16.1 0.00 0.00 0.00 32 1016.9
20260503214347 12 159 3.2 11.3 0.00 0.00 0.00 34 1016.8
20260503213844 12 220 6.4 12.9 0.00 0.00 0.00 31 1016.8
20260503213342 10 280 4.8 20.9 0.00 0.00 0.00 33 1016.8
20260503212838 11 89 4.8 8.0 0.00 0.00 0.00 32 1016.8
20260503212336 10 5 8.0 19.3 0.00 0.00 0.00 33 1017.0
20260503211833 11 320 20.9 24.1 0.00 0.00 0.00 33 1016.9
20260503211330 11 353 4.8 9.7 0.00 0.00 0.00 30 1016.9
20260503210825 12 166 3.2 16.1 0.00 0.00 0.00 32 1017.0
20260503210323 11 37 1.6 12.9 0.00 0.00 0.00 32 1017.1
20260503205817 12 224 6.4 14.5 0.00 0.00 0.00 30 1017.3
20260503205314 10 357 1.6 22.5 0.00 0.00 0.00 34 1017.3
20260503204811 10 78 9.7 16.1 0.00 0.00 0.00 32 1017.3
20260503204309 10 129 8.0 22.5 0.00 0.00 0.00 36 1017.2
20260503203806 10 108 6.4 16.1 0.00 0.00 0.00 35 1017.3
20260503203303 10 20 3.2 20.9 0.00 0.00 0.00 35 1017.5
20260503202800 12 187 4.8 29.0 0.00 0.00 0.00 35 1017.3
20260503202258 12 172 0.0 9.7 0.00 0.00 0.00 30 1017.6
20260503201755 11 199 14.5 20.9 0.00 0.00 0.00 34 1017.7
20260503201253 12 176 4.8 24.1 0.00 0.00 0.00 36 1017.8
20260503200750 12 194 8.0 16.1 0.00 0.00 0.00 34 1017.7
20260503200245 13 150 16.1 16.1 0.00 0.00 0.00 31 1017.7
20260503195743 11 202 6.4 19.3 0.00 0.00 0.00 32 1017.7
20260503195239 12 278 0.0 9.7 0.00 0.00 0.00 31 1017.8
20260503194737 12 162 6.4 22.5 0.00 0.00 0.00 34 1017.8
20260503194232 12 145 3.2 11.3 0.00 0.00 0.00 32 1017.8
20260503193729 11 185 3.2 16.1 0.00 0.00 0.00 36 1018.0
20260503193225 12 308 4.8 17.7 0.00 0.00 0.00 35 1018.0
20260503192721 12 71 3.2 24.1 0.00 0.00 0.00 36 1018.0
20260503192216 11 354 16.1 19.3 0.00 0.00 0.00 35 1018.0
20260503191713 11 18 4.8 25.7 0.00 0.00 0.00 36 1018.2
20260503191211 11 193 4.8 14.5 0.00 0.00 0.00 34 1018.3
20260503190707 9 4 9.7 24.1 0.00 0.00 0.00 34 1018.4
20260503190204 10 346 6.4 29.0 0.00 0.00 0.00 37 1018.5
20260503185701 10 95 9.7 16.1 0.00 0.00 0.00 34 1018.1
20260503185156 11 91 6.4 12.9 0.00 0.00 0.00 33 1018.3
20260503184651 12 156 4.8 12.9 0.00 0.00 0.00 34 1018.5
20260503184148 12 76 0.0 4.8 0.00 0.00 0.00 35 1018.3
20260503183644 12 355 3.2 17.7 0.00 0.00 0.00 32 1018.4
20260503183142 11 210 4.8 32.2 0.00 0.00 0.00 32 1018.4
20260503182640 11 189 16.1 38.6 0.00 0.00 0.00 35 1018.4
20260503182139 8 165 11.3 24.1 0.00 0.00 0.00 37 1018.3
20260503181635 8 10 14.5 29.0 0.00 0.00 0.00 37 1018.7
20260503181131 8 48 17.7 24.1 0.00 0.00 0.00 36 1018.9
20260503180628 8 117 9.7 20.9 0.00 0.00 0.00 35 1018.8
20260503180126 10 345 20.9 29.0 0.00 0.00 0.00 33 1019.1
20260503175623 10 352 3.2 14.5 0.00 0.00 0.00 37 1019.0
20260503175120 10 340 9.7 14.5 0.00 0.00 0.00 36 1018.9
20260503174616 8 92 12.9 19.3 0.00 0.00 0.00 35 1018.8
20260503174114 8 78 19.3 27.4 0.00 0.00 0.00 37 1018.8
20260503173609 10 181 3.2 12.9 0.00 0.00 0.00 43 1018.7
20260503173105 7 62 11.3 24.1 0.00 0.00 0.00 36 1018.8
20260503172602 8 322 11.3 38.6 0.00 0.00 0.00 37 1019.1
20260503172100 8 117 9.7 16.1 0.00 0.00 0.00 38 1018.9
20260503171556 7 339 25.7 38.6 0.00 0.00 0.00 40 1018.8
20260503171054 7 341 16.1 25.7 0.00 0.00 0.00 40 1019.1
20260503170549 6 18 22.5 25.7 0.00 0.00 0.00 39 1019.2
20260503150942 8 150 6.4 17.7 0.00 0.00 0.00 46 1020.0
20260503150439 5 108 3.2 24.1 0.00 0.00 0.00 49 1020.0
20260503131332 2 129 12.9 22.5 0.00 0.00 0.00 54 1019.2
20260503130829 2 172 3.2 38.6 0.00 0.00 0.00 58 1019.1
20260503130327 3 52 8.0 11.3 0.00 0.00 0.00 57 1019.3
20260503110720 0 120 4.8 11.3 0.00 0.00 0.00 75 1017.9
20260503110217 0 40 14.5 16.1 0.00 0.00 0.00 75 1018.1
20260503100138 0 10 8.0 22.5 0.00 0.00 0.00 77 1017.3
20260503081532 0 355 3.2 12.9 0.00 0.00 0.00 74 1016.9
20260503081030 0 80 9.7 22.5 0.00 0.00 0.00 75 1016.6
20260503080526 0 110 14.5 24.1 0.00 0.00 0.00 75 1016.6
20260503072459 0 62 4.8 14.5 0.00 0.00 0.00 73 1016.1
20260503071956 0 44 4.8 8.0 0.00 0.00 0.00 74 1015.9
20260503071453 0 137 4.8 9.7 0.00 0.00 0.00 73 1016.0
20260503070949 0 107 1.6 19.3 0.00 0.00 0.00 72 1016.3
20260503070446 0 92 1.6 4.8 0.00 0.00 0.00 73 1016.0
20260503054900 1 89 8.0 11.3 0.00 0.00 0.00 75 1016.1
20260503054356 1 342 3.2 17.7 0.00 0.00 0.00 75 1016.0
20260503053854 1 63 14.5 24.1 0.00 0.00 0.00 75 1015.9
20260503053352 1 39 3.2 22.5 0.00 0.00 0.00 75 1016.1
20260503052848 1 112 19.3 24.1 0.00 0.00 0.00 76 1016.1
20260503052345 1 114 1.6 14.5 0.00 0.00 0.00 76 1016.0
20260503051842 1 119 8.0 12.9 0.00 0.00 0.00 76 1015.9
20260503051338 1 148 1.6 8.0 0.00 0.00 0.00 76 1015.9
20260503050835 1 72 6.4 16.1 0.00 0.00 0.00 75 1015.9
20260503050331 1 49 4.8 4.8 0.00 0.00 0.00 75 1016.0
20260503045829 1 115 6.4 27.4 0.00 0.00 0.00 74 1016.0
20260503045327 1 37 3.2 16.1 0.00 0.00 0.00 74 1016.0
20260503044823 1 109 22.5 22.5 0.00 0.00 0.00 74 1015.9
20260503044320 2 112 16.1 17.7 0.00 0.00 0.00 75 1015.7
20260503043817 2 91 6.4 14.5 0.00 0.00 0.00 74 1015.8
20260503043314 1 167 4.8 17.7 0.00 0.00 0.00 76 1016.1
20260503042810 2 84 6.4 11.3 0.00 0.00 0.00 75 1015.9
20260503042307 2 8 4.8 8.0 0.00 0.00 0.00 75 1016.0
20260503041803 2 349 9.7 11.3 0.00 0.00 0.00 74 1016.0
20260503041300 2 13 4.8 6.4 0.00 0.00 0.00 73 1016.0
20260503040758 2 77 4.8 6.4 0.00 0.00 0.00 75 1015.9
20260503040255 2 91 6.4 9.7 0.00 0.00 0.00 73 1016.4
20260503035752 2 88 4.8 9.7 0.00 0.00 0.00 75 1016.0
20260503035249 2 59 4.8 8.0 0.00 0.00 0.00 73 1016.3
20260503034746 2 64 4.8 9.7 0.00 0.00 0.00 73 1016.1
20260503034243 2 84 3.2 8.0 0.00 0.00 0.00 74 1016.1
20260503033741 2 14 9.7 12.9 0.00 0.00 0.00 74 1016.1
20260503033238 2 107 9.7 14.5 0.00 0.00 0.00 74 1016.1
20260503032736 2 120 4.8 8.0 0.00 0.00 0.00 73 1016.1
20260503032235 2 1 3.2 8.0 0.00 0.00 0.00 72 1016.1
20260503031732 2 330 3.2 8.0 0.00 0.00 0.00 71 1016.1
20260503031230 2 112 6.4 12.9 0.00 0.00 0.00 70 1016.0
20260503030725 2 341 3.2 6.4 0.00 0.00 0.00 70 1016.3
20260503030222 2 50 4.8 8.0 0.00 0.00 0.00 69 1016.0
20260503025719 2 181 3.2 8.0 0.00 0.00 0.00 69 1016.4
20260503025217 2 99 4.8 6.4 0.00 0.00 0.00 70 1016.6
20260503024713 2 32 1.6 4.8 0.00 0.00 0.00 70 1016.4
20260503024211 2 115 4.8 6.4 0.00 0.00 0.00 68 1016.4
20260503023707 2 91 3.2 11.3 0.00 0.00 0.00 67 1016.5
20260503023203 2 37 1.6 11.3 0.00 0.00 0.00 66 1016.3
20260503022659 3 217 4.8 9.7 0.00 0.00 0.00 66 1016.4
20260503022159 2 24 4.8 6.4 0.00 0.00 0.00 67 1016.4
20260503021656 2 302 4.8 11.3 0.00 0.00 0.00 67 1016.3
20260503021153 2 30 1.6 8.0 0.00 0.00 0.00 67 1015.9
20260503020650 2 89 0.0 6.4 0.00 0.00 0.00 69 1016.0
20260503020147 2 92 3.2 4.8 0.00 0.00 0.00 73 1016.3
20260503015644 2 1 1.6 6.4 0.00 0.00 0.00 76 1016.0
20260503015141 2 60 3.2 6.4 0.00 0.00 0.00 77 1016.0
20260503014637 1 69 1.6 4.8 0.00 0.00 0.00 74 1016.1
20260503014135 1 73 0.0 4.8 0.00 0.00 0.00 79 1016.3
20260503013632 1 85 1.6 3.2 0.00 0.00 0.00 78 1015.8
20260503013130 1 77 0.0 4.8 0.00 0.00 0.00 78 1016.3
20260503012627 1 142 1.6 4.8 0.00 0.00 0.00 75 1016.0
20260503012123 1 80 3.2 4.8 0.00 0.00 0.00 77 1015.8
20260503011620 1 1 1.6 4.8 0.00 0.00 0.00 77 1015.9
20260503011117 1 110 1.6 4.8 0.00 0.00 0.00 76 1015.9
20260503010613 1 102 0.0 3.2 0.00 0.00 0.00 73 1015.7
20260503010111 2 156 3.2 6.4 0.00 0.00 0.00 72 1015.7
20260503005608 2 105 3.2 4.8 0.00 0.00 0.00 65 1015.7
20260503005105 2 165 0.0 6.4 0.00 0.00 0.00 69 1015.6